sat.trackr.live / text

‹ back to catalog

STARLINK-3929

NORAD 52567 · 2022-051AL

PAYLOAD ACTIVE UNKNOWN

§ Identity

Operator
Country
US
Launch date
2022-05-13
Launch site
AFWTR
Launch vehicle
Mass (kg)
RCS (m²)

Purposes: comms

External: N2YO · Heavens-Above · Gunter

§ Orbital elements

Epoch: 2026-05-25T03:28:21.528768Z

Period
95.44 min
Inclination
53.2137°
Eccentricity
0.0001299
Mean motion
15.08819183 rev/d
Perigee alt
538.9 km
Apogee alt
540.7 km
Semi-major
6,917.9 km
B*
1.8821e-4
RAAN
135.9009°
Arg perigee
96.9278°
Mean anomaly
263.1861°
Rev number
22,312

§ Raw data

STARLINK-39291 52567U 22051AL  26145.14469362  .00002707  00000+0  18821-3 0  99962 52567  53.2137 135.9009 0001299  96.9278 263.1861 15.08819183223128

JSON: /api/v1/satellites/52567 · /tle

For live sub-satellite position, see the globe view (requires WebGL).

§ Visibility from observer

Set your observer location to see the next 7 days of passes ≥ 10°. The values pass through the URL so the page stays shareable.

No JS? Fill the form by hand. The geolocation button needs JavaScript.